Home   Weather   Annapolis   Past weeks

Flag for USA Past Weather in Annapolis, Maryland, USA — Yesterday and Last 2 Weeks

Now
59 °F

Overcast.


Feels Like: 57 °F
Forecast: 51 / 54 °F
Wind: 9 mph from Northeast

Location: Annapolis - United States Naval Academy

Current Time: Apr 24, 2017 at 6:49:32 pm

Latest Report: Apr 24, 2017 at 5:54 pm


Visibility: 10 mi

Pressure: 30.02 "Hg

Humidity: 62%

Dew Point: 46 °F

Location of AnnapolisLocation

Past Weather in Annapolis — Graph

°F

Annapolis Temperature Yesterday

Maximum temperature yesterday: 60 °F (at 3:54 pm)
Minimum temperature yesterday: 51 °F (at 5:54 am)
Average temperature yesterday: 56 °F

High & Low Weather Summary for the Past Weeks

 TemperatureHumidityPressure
High88 °F (Apr 16, 3:54 pm)97% (Apr 21, 2:54 am)30.41 "Hg (Apr 21, 2:54 am)
Low51 °F (Apr 10, 5:54 am)28% (Apr 16, 3:54 pm)29.80 "Hg (Apr 21, 4:54 pm)
Average63 °F69%30.11 "Hg
* Reported Apr 9 4:54 pm — Apr 24 4:54 pm, Annapolis, Weather by CustomWeather, © 2017

Note: Actual official high and low records may vary slightly from our data, if they occured in-between our weather recording intervals... More about our weather records

Advertising

Annapolis Weather History for the Previous 24 Hours

Scroll right to see more
 ConditionsComfort  
Time TempWeatherWind HumidityBarometerVisibility
4:54 pm
Mon, Apr 24
59 °FOvercast.9 mph67%30.02 "Hg10 mi
3:54 pm58 °FOvercast.7 mph75%30.03 "Hg10 mi
2:54 pm58 °FOvercast.9 mph70%30.04 "Hg10 mi
1:54 pm57 °FOvercast.12 mph69%30.06 "Hg10 mi
12:54 pm57 °FOvercast.9 mph69%30.07 "Hg10 mi
11:54 am56 °FOvercast.9 mph72%30.09 "Hg10 mi
10:54 am55 °FOvercast.12 mph69%30.10 "Hg10 mi
9:54 am54 °FOvercast.12 mph67%30.11 "Hg10 mi
8:54 am53 °FOvercast.12 mph77%30.10 "Hg10 mi
7:54 am54 °FLight rain. Overcast.7 mph83%30.10 "Hg9 mi
6:54 am54 °FOvercast.5 mph77%30.08 "Hg10 mi
5:54 am54 °FMostly cloudy.3 mph77%30.07 "Hg10 mi
4:54 am54 °FOvercast.3 mph74%30.06 "Hg10 mi
3:54 am54 °FOvercast.5 mph77%30.06 "Hg10 mi
2:54 am55 °FOvercast.3 mph72%30.07 "Hg10 mi
1:54 am56 °FOvercast.6 mph72%30.09 "Hg10 mi
12:54 am56 °FOvercast.6 mph77%30.10 "Hg10 mi
11:54 pm
Sun, Apr 23
57 °FClear.6 mph74%30.10 "Hg10 mi
10:54 pm58 °FClear.7 mph75%30.09 "Hg10 mi
9:54 pm58 °FClear.5 mph70%30.11 "Hg10 mi
8:54 pm58 °FClear.No wind67%30.10 "Hg10 mi
7:54 pm59 °FClear.3 mph62%30.09 "Hg10 mi
6:54 pm60 °FScattered clouds.No wind58%30.09 "Hg10 mi
Weather by CustomWeather, © 2017

See weather overviewHow to use our weather pages